Location: Göbrichen
(48.9563°N, 8.7095°E)
Time: 21:45:29
(UTC+00:00)

Daily predictions for brighter satellites

Satellite Brightness Start Highest point End
(mag) Time Altitude Azimuth Time Altitude Azimuth Time Altitude Azimuth
Cosmos 2233 Rocket 4.5 17:45:50 10° SSW 17:51:58 69° WNW 17:58:11 10° N
In-Cosmos 22 4.4 17:47:17 10° N 17:52:48 50° ENE 17:58:07 10° SSE
USA 267 3.7 17:47:34 10° NE 17:54:04 65° NNW 18:00:33 10° WSW
Cosmos 1943 Rocket 2.3 17:49:19 10° NNW 17:54:53 84° WSW 18:00:25 10° SSE
SJ-6B 3.4 17:52:16 10° SE 17:55:27 30° ENE 17:58:37 10° N
KORONAS-FOTON 3.8 17:51:56 10° N 17:55:38 85° W 17:59:17 10° S
Cosmos 2150 Rocket 4.3 17:50:48 10° NNW 17:55:47 47° ENE 18:00:43 10° SE
Okean 3 Rocket 3.8 17:51:33 10° SSE 17:55:49 49° E 18:00:05 10° NNE
Iridium 4 Rocket 3.0 17:51:54 10° N 17:56:06 89° WSW 18:00:25 10° S
NOSS 3-3 (A) 3.9 17:51:45 10° SSW 17:56:57 54° ESE 18:03:02 10° NE
Cosmos 1408 Rocket 4.3 17:54:04 10° SSE 17:57:57 31° E 18:01:53 10° NNE
SL-08 R/B 4.0 17:54:03 10° NNE 17:58:31 34° E 18:02:57 10° SSE
Cosmos 2298 Rocket 4.3 17:53:42 10° NNW 17:58:53 50° ENE 18:04:02 10° SE
SeaSat 1 2.5 17:56:57 10° NE 18:01:49 57° ESE 18:06:38 10° SSW
Cosmos 158 Rocket 3.9 17:57:12 10° S 18:01:55 55° ESE 18:06:42 10° NNE
Helios 1A 4.0 17:58:56 10° NE 18:02:17 24° E 18:05:38 10° SSE
Cosmos 1513 Rocket 4.5 17:58:12 10° S 18:04:11 66° E 18:10:18 10° NNE
Sich 1 4.0 18:01:37 10° SE 18:05:11 26° E 18:08:48 10° NNE
Cosmos 1328 Rocket 4.4 18:02:34 10° NNW 18:06:47 56° W 18:11:00 10° S
Okean O Rocket 3.3 18:04:08 10° E 18:06:48 16° ENE 18:09:28 10° NNE
Tiangong 0.2 18:06:01 10° S 18:07:15 12° SSE 18:08:30 10° SE
COSMO-SKYMED 1 3.4 18:03:03 10° N 18:07:20 58° WNW 18:11:35 10° SSW
Cosmos 1656 Rocket 4.3 18:03:14 10° NNW 18:08:33 40° NE 18:13:47 10° ESE
Cosmos 2297 4.4 18:04:44 10° NNW 18:09:59 37° NE 18:15:12 10° ESE
Cosmos 1607 4.4 18:04:03 10° S 18:10:03 42° ESE 18:16:03 10° NE
Aureole 3 Rocket 4.1 18:06:45 10° SSE 18:11:22 28° E 18:14:57 10° NE
Meteor 1-4 Rocket 4.3 18:10:26 10° NW 18:12:42 25° W 18:14:56 10° SSW
Cosmos 2369 Rocket 3.0 18:09:34 10° NNW 18:14:48 35° NE 18:19:41 11° ESE
Helios 1B rocket 2.9 18:11:42 10° S 18:15:29 58° WSW 18:19:18 10° NNW
CZ-4 R/B 1.9 18:12:05 10° SE 18:15:41 38° ENE 18:19:22 10° N
TRACE 4.3 18:14:25 10° NNE 18:17:46 61° ESE 18:21:04 10° S
Cosmos 1464 Rocket 4.0 18:11:55 10° S 18:18:10 65° E 18:24:30 10° NNE
ARIANE 6 FM1 Upper Stage 4.3 18:17:29 10° SSE 18:20:01 16° ESE 18:21:45 13° E
Cosmos 1980 4.0 18:14:49 10° SSW 18:20:30 75° WNW 18:26:13 10° NNE
NOSS 3-4 (A) 4.0 18:14:46 10° NW 18:21:21 59° NE 18:28:32 12° ESE
NOSS 3-4 (C) 4.0 18:14:52 10° NW 18:21:26 59° NE 18:28:35 12° ESE
CZ-4B R/B 3.2 18:21:33 10° SE 18:25:25 47° ENE 18:29:28 10° N
Meteor 1-13 Rocket 4.3 18:21:20 10° N 18:27:12 85° ENE 18:32:54 10° SSE
Cosmos 1805 Rocket 3.9 18:24:50 10° SSE 18:28:53 41° E 18:33:00 10° NNE
Cosmos 2228 Rocket 4.3 18:26:27 10° NNE 18:30:13 24° ENE 18:32:38 16° ESE
Cosmos 1441 Rocket 4.3 18:29:41 14° SE 18:31:40 21° E 18:34:24 10° NE
Cosmos 2084 Rocket 4.4 18:30:15 10° S 18:33:51 26° ESE 18:37:01 12° ENE
Cosmos 1975 3.6 18:31:26 10° SSE 18:34:48 29° E 18:38:11 10° NNE
Resurs 01 Rocket 2.0 18:30:37 10° SE 18:34:48 45° ENE 18:39:01 10° N
Cosmos 1707 4.5 18:35:54 10° NNW 18:39:05 32° W 18:42:16 10° SSW
Okean-O 4.1 18:39:41 17° E 18:41:04 20° ENE 18:44:14 10° NNE
Cosmos 2034 Rocket 3.9 18:39:14 10° S 18:45:21 70° E 18:51:29 10° NNE
Cosmos 1707 Rocket 4.4 18:42:14 10° N 18:46:10 30° ENE 18:47:57 23° ESE
Meteor PRIRODA 3.6 18:43:37 10° S 18:46:53 69° WSW 18:50:10 10° NNW
USA 306 3.3 18:43:49 10° WNW 18:46:54 38° NNE 18:48:52 21° ENE
ISS -3.2 18:44:00 10° W 18:47:18 51° N 18:49:13 22° ENE
Cosmos 2208 Rocket 4.3 18:46:01 10° SSW 18:51:18 72° WNW 18:56:42 10° NNE
ACS3 Solar Sail 2.1 18:48:36 13° SE 18:54:07 51° ENE 19:00:17 10° N
Cosmos 1733 4.5 18:51:05 10° SW 18:54:18 39° WNW 18:57:33 10° N
SL-16 R/B 2.1 18:49:38 10° SSW 18:55:14 65° ESE 19:00:52 10° NNE
Cosmos 1315 Rocket 3.7 18:53:19 10° NNW 18:57:11 49° W 19:01:00 10° S
Cosmos 1805 3.0 18:54:16 10° S 18:57:54 89° W 19:01:36 10° N
SPOT 1/Viking Rocket 4.4 19:01:19 10° S 19:06:19 50° W 19:11:21 10° NNW
Okean 3 3.9 19:03:48 10° N 19:07:44 39° ENE 19:08:32 35° ESE
Cosmos 1943 3.9 19:07:43 28° ESE 19:08:19 29° ESE 19:13:06 10° NE
Meteor 1-11 Rocket 4.3 19:02:54 10° SSW 19:08:22 59° WNW 19:13:51 10° N
ATLAS CENTAUR R/B 3.6 19:05:45 10° W 19:08:38 21° NNW 19:11:37 10° NNE
SL-14 R/B 3.4 19:05:44 10° NNW 19:09:32 72° W 19:12:46 14° S
ATLAS 2AS CENTAUR R/B 4.3 19:05:33 10° NW 19:11:10 25° N 19:16:25 11° ENE
Cosmos 783 Rocket 4.4 19:06:00 10° S 19:11:11 64° ESE 19:16:23 10° NNE
PSLV R/B 4.2 19:14:51 36° ENE 19:14:51 36° ENE 19:17:48 10° N
Meteor 1-21 4.2 19:08:53 10° N 19:14:43 86° E 19:19:45 14° SSE
CSL-04 Rocket 3.5 19:11:58 16° SSE 19:16:19 87° ENE 19:21:39 10° NNW
CZ-4B R/B 3.2 19:13:15 13° SSE 19:18:10 83° WSW 19:23:32 10° NNW
Cosmos 2263 4.2 19:13:15 10° NNW 19:18:57 69° ENE 19:21:32 33° SE
USA 186 2.9 19:24:41 22° SSW 19:26:23 43° W 19:29:29 10° NNW
Cosmos 1743 Rocket 4.4 19:29:14 10° SSW 19:33:26 50° WNW 19:37:43 10° N
Cosmos 2237 Rocket 4.2 19:29:25 10° WSW 19:34:12 28° NW 19:39:02 10° NNE
USA 267 4.1 19:31:14 14° ENE 19:36:32 45° N 19:42:42 10° WNW
Cosmos 2026 Rocket 4.3 19:31:07 10° NNW 19:37:13 64° W 19:43:13 10° S
SeaSat 1 4.4 19:34:48 10° NNE 19:39:00 29° NW 19:43:10 10° WSW
Cosmos 1766 3.4 19:41:43 58° NNE 19:41:43 58° NNE 19:44:46 10° N
Cosmos 2266 Rocket 4.3 19:35:36 10° N 19:41:40 46° ENE 19:42:48 42° ESE
Okean O Rocket 1.7 19:41:03 41° S 19:42:31 74° WSW 19:46:57 10° NNW
Tiangong 0.7 19:40:49 10° SW 19:41:06 11° SW 19:41:06 11° SW
GEOS 3 Rocket 3.6 19:41:58 46° SSE 19:43:35 81° SW 19:48:47 10° NW
CZ-4 R/B 3.7 19:47:21 10° SW 19:50:20 21° W 19:53:22 10° NW
SPOT 5 2.5 19:54:01 82° E 19:54:04 82° ENE 19:58:26 10° NNW
ARIANE 6 FM1 Upper Stage 2.9 19:54:31 10° SW 19:58:11 64° WSW 19:58:11 64° WSW
Cosmos 2369 Rocket 2.9 19:53:31 10° NW 19:59:01 49° WSW 20:01:29 30° SSW
Okean 2 3.6 19:55:46 10° N 19:59:09 61° NNW 19:59:09 61° NNW
Terra 2.3 20:00:58 46° NE 20:00:58 46° NE 20:04:51 10° N
Cosmos 2344 4.5 19:53:34 10° NW 20:00:58 44° NNE 20:05:08 29° E
BREEZE-M DEB (TANK) 3.6 19:44:28 10° W 20:02:06 87° SSW 20:03:29 56° ESE
Aureole 3 3.8 19:59:03 10° N 20:03:42 80° E 20:03:54 78° ESE
Okean 1-7 3.3 20:03:52 10° N 20:07:26 60° NNW 20:07:26 60° NNW
Cosmos 2228 Rocket 4.3 20:04:13 10° NNW 20:08:31 41° W 20:10:04 30° SW
Cosmos 1633 Rocket 3.3 20:09:43 65° W 20:09:51 65° WNW 20:14:15 10° N
Resurs 01 Rocket 3.8 20:07:58 10° SW 20:11:26 22° W 20:14:54 10° NW
MetOp-B 4.1 20:11:40 64° SSW 20:12:27 78° WSW 20:17:50 10° NNW
Cosmos 2084 Rocket 4.2 20:08:29 10° WSW 20:12:41 51° NW 20:13:11 47° NNW
Cosmos 1538 Rocket 3.9 20:13:37 82° ENE 20:13:37 82° ENE 20:18:49 10° NNE
RESURS DK-1 4.5 20:13:07 10° N 20:14:56 18° NNE 20:14:56 18° NNE
Okean-O 3.1 20:17:08 55° W 20:17:08 55° W 20:21:24 10° NNW
Cosmos 1980 Rocket 4.5 20:15:27 10° N 20:17:37 12° NNE 20:19:05 11° NE
USA 306 4.4 20:16:05 10° WNW 20:17:50 28° WNW 20:17:50 28° WNW
MOS 1 Rocket 3.6 20:20:11 70° SW 20:20:34 74° WSW 20:25:59 10° NNW
Spot 2 Rocket 3.8 20:23:41 55° NNE 20:23:41 55° NNE 20:27:48 10° N
SL-08 ROCKET BODY 4.2 20:16:39 10° N 20:22:50 86° E 20:23:16 78° SSE
ISS -1.2 20:20:55 10° WNW 20:22:09 21° WNW 20:22:09 21° WNW
ERS-1 Rocket 3.1 20:26:14 73° NW 20:26:14 73° NW 20:30:50 10° NNW
IRS-1A Rocket 4.2 20:27:25 73° SW 20:27:48 77° WSW 20:33:27 10° NNW
ACS3 Solar Sail 3.3 20:33:51 16° SSW 20:38:20 34° W 20:44:06 10° NNW
SL-16 R/B 4.1 20:34:57 10° WSW 20:39:48 28° NW 20:44:39 10° NNE
SPOT 3 Rocket 4.1 20:41:30 51° N 20:41:30 51° N 20:45:24 10° NNW
Meteor 2-5 Rocket 4.3 20:39:53 10° N 20:44:37 51° NNE 20:44:37 51° NNE
Cosmos 1943 3.8 20:49:01 26° WSW 20:52:03 54° NW 20:57:37 10° NNE
Ariane Rocket 3.9 20:57:45 47° NNW 20:57:45 47° NNW 21:01:23 10° NNW
Cosmos 1697 Rocket 4.1 20:54:36 10° NNW 20:58:31 28° NNE 20:58:31 28° NNE
ATLAS 2AS CENTAUR R/B 3.2 20:57:10 10° NW 21:03:48 46° NE 21:03:49 46° NE
Cosmos 1655 Rocket 4.2 20:57:32 10° NNW 21:03:30 71° WNW 21:03:30 71° WNW
USA 267 3.7 21:18:34 53° NNE 21:18:55 54° NNE 21:25:17 10° WNW
Terra 4.1 21:39:40 19° WNW 21:39:40 19° WNW 21:41:49 10° NW
Cosmos 1980 Rocket 4.0 21:58:00 10° NNW 22:00:49 27° N 22:00:49 27° N
Cosmos 2344 4.1 22:07:46 10° NW 22:15:07 66° W 22:15:07 66° W
Cosmos 2360 Rocket 4.5 22:47:24 10° N 22:50:34 17° NNE 22:50:34 17° NNE
ATLAS 2AS CENTAUR R/B 4.2 22:48:16 10° NW 22:51:13 27° WNW 22:51:13 27° WNW
Cosmos 2322 Rocket 4.3 23:04:22 10° NNW 23:07:17 22° NNE 23:07:17 22° NNE
Cosmos 2082 Rocket 4.5 23:26:45 19° NE 23:26:45 19° NE 23:28:13 10° NNE
SL-16 R/B 4.3 23:32:49 10° NNW 23:34:52 22° NNW 23:34:52 22° NNW
Cosmos 2333 Rocket 4.2 23:48:52 10° NNW 23:51:31 25° N 23:51:31 25° N
